星链-35397(STARLINK-35397)

导读 | 豆包AI

STARLINK-35397是美国太空探索技术公司(SpaceX)于2025年9月29日发射的第二代星链(Starlink)宽带互联网卫星,运行于低地球轨道,属于第二代星链星座的组网卫星。该卫星配备增强型相控阵天线与激光星间链路,单星容量超100Gbps,可提供高速低延迟的宽带互联网服务,为全球偏远地区提供网络接入,也支持应急通信、移动连接等场景。星链星座通过规模化部署,持续扩展全球覆盖能力,目前在轨卫星已超7800颗,该卫星的入轨进一步完善了星链的全球网络架构。

基本信息
目录编号:
65825
目录名称:
STARLINK-35397
国际标识:
2025-221C
轨道中心:
EARTH
卫星名称:
星链-35397
卫星全名:
星链-35397(STARLINK-35397)
卫星状态:
在轨 (已飞行212 天)
发射日期:
2025-09-29 UTC
国别 :
美国 (US)
星等 :
--
轨道信息
数据来源 国际轨道数据
星历时间: 2026-04-28T22:18:12+0800
17小时前
查看轨道信息
半长轴: 6853.342km
偏心率: 0.0000983
轨道倾角: 53.161°
近地点辐角 92.028°
升交点赤经 216.579°
平近点角 268.084°
近地点: 474.531km
远地点: 475.879km
周期: 94.105分钟
每日圈数: 15.302034
详细信息
固有亮度:
5
最大亮度:
2.5
卫星平台:
Starlink V1.0
覆盖范围:
全球
运营商:
太空探索技术公司
运营商所在国:
美国
制造商(研发单位):
太空探索技术公司
制造商所在国:
美国
使用方式:
暂无
卫星简介
Starlink 计划是 SpaceX 推出的全球卫星互联网项目,通过发射低轨道卫星,为全球尤其是偏远地区提供高速、低延迟的互联网服务。自 2019 年起,Starlink 已部署数千颗卫星,旨在缩小全球数字鸿沟,推动互联网普及。该项目还为军事、航空等行业提供通信支持,带来广泛经济效益。
2D轨道图
3D轨道图
轨道高度分析图
轨道倾角分析图
轨道综合分析图
查看轨道综合分析图